Tracking 32523 objects as of 12-Dec-2025
HD Live streaming from Space Station
objects crossing your sky now

STARLINK-5424

Track STARLINK-5424 now!
10-day predictions
STARLINK-5424 is classified as:


NORAD ID: 54811
Int'l Code: 2022-175BF
Perigee: 546.0 km
Apogee: 547.8 km
Inclination: 53.2 °
Period: 95.4 minutes
Semi major axis: 6917 km
RCS: Unknown
Launch date: December 17, 2022
Source: United States (US)
Launch site: AIR FORCE EASTERN TEST RANGE (AFETR)
Your satellite tracking list
Your tracking list is empty




NASA's NSSDC Master Catalog

Two Line Element Set (TLE):
1 54811U 22175BF  25346.28568144  .00009741  00000-0  62921-3 0  9998
2 54811  53.2179  56.5357 0001310  91.0930 269.0212 15.08843688167003
Source of the keplerian elements: AFSPC